Year,Month,Day,Hour,Minute,Value (Times are PST for temperature in C)
2010,09,19,10,04,13.80
2010,09,19,10,05,13.80
2010,09,19,10,06,13.80
2010,09,19,10,07,13.80
2010,09,19,10,08,13.80
2010,09,19,10,09,13.80
2010,09,19,10,10,13.80
2010,09,19,10,11,13.90
2010,09,19,10,12,13.90
2010,09,19,10,13,13.90
2010,09,19,10,14,14.00
2010,09,19,10,15,14.00
2010,09,19,10,16,14.10
2010,09,19,10,17,14.10
2010,09,19,10,18,14.10
2010,09,19,10,19,14.10
2010,09,19,10,20,14.10
2010,09,19,10,21,14.20
2010,09,19,10,22,14.20
2010,09,19,10,23,14.20
2010,09,19,10,24,14.30
2010,09,19,10,25,14.30
2010,09,19,10,26,14.30
2010,09,19,10,27,14.40
2010,09,19,10,28,14.50
2010,09,19,10,29,14.60
2010,09,19,10,30,14.50
2010,09,19,10,31,14.50
2010,09,19,10,32,14.50
2010,09,19,10,33,14.50
2010,09,19,10,34,14.50
2010,09,19,10,35,14.50
2010,09,19,10,36,14.60
2010,09,19,10,37,14.60
2010,09,19,10,38,14.60
2010,09,19,10,39,14.60
2010,09,19,10,40,14.60
2010,09,19,10,41,14.70
2010,09,19,10,42,14.70
2010,09,19,10,43,14.70
2010,09,19,10,44,14.70
2010,09,19,10,45,14.70
2010,09,19,10,46,14.70
2010,09,19,10,47,14.70
2010,09,19,10,48,14.70
2010,09,19,10,49,14.70
2010,09,19,10,50,14.70
2010,09,19,10,51,14.80
2010,09,19,10,52,14.80
2010,09,19,10,53,14.80
2010,09,19,10,54,14.80
2010,09,19,10,55,14.80
2010,09,19,10,56,14.80
2010,09,19,10,57,14.90
2010,09,19,10,58,14.90
2010,09,19,10,59,14.90
2010,09,19,11,00,15.00
2010,09,19,11,01,15.00
2010,09,19,11,02,15.00
2010,09,19,11,03,15.00
2010,09,19,11,04,15.00
2010,09,19,11,05,15.00
2010,09,19,11,06,15.00
2010,09,19,11,07,15.00
2010,09,19,11,08,15.00
2010,09,19,11,09,15.00
2010,09,19,11,10,15.00
2010,09,19,11,11,15.00
2010,09,19,11,12,15.00
2010,09,19,11,13,15.00
2010,09,19,11,14,15.00
2010,09,19,11,15,15.00
2010,09,19,11,16,15.00
2010,09,19,11,17,15.00
2010,09,19,11,18,15.00
2010,09,19,11,19,15.00
2010,09,19,11,20,15.10
2010,09,19,11,21,15.20
2010,09,19,11,22,15.20
2010,09,19,11,23,15.30
2010,09,19,11,24,15.30
2010,09,19,11,25,15.40
2010,09,19,11,26,15.60
2010,09,19,11,27,15.70
2010,09,19,11,28,15.80
2010,09,19,11,29,15.80
2010,09,19,11,30,15.80
2010,09,19,11,31,15.90
2010,09,19,11,32,15.90
2010,09,19,11,33,15.80
2010,09,19,11,34,15.80
2010,09,19,11,35,15.70
2010,09,19,11,36,15.80
2010,09,19,11,37,15.80
2010,09,19,11,38,15.80
2010,09,19,11,39,15.80
2010,09,19,11,40,15.90
2010,09,19,11,41,16.00
2010,09,19,11,42,16.10
2010,09,19,11,43,16.20
2010,09,19,11,44,16.30
2010,09,19,11,45,16.30
2010,09,19,11,46,16.30
2010,09,19,11,47,16.30
2010,09,19,11,48,16.30
2010,09,19,11,49,16.20
2010,09,19,11,50,16.20
2010,09,19,11,51,16.20
2010,09,19,11,52,16.30
2010,09,19,11,53,16.30
2010,09,19,11,54,16.20
2010,09,19,11,55,16.20
2010,09,19,11,56,16.10
2010,09,19,11,57,16.10
2010,09,19,11,58,16.10
2010,09,19,11,59,16.10
2010,09,19,12,00,16.10
2010,09,19,12,01,16.00
2010,09,19,12,02,16.00
2010,09,19,12,03,16.10
2010,09,19,12,04,16.10
2010,09,19,12,05,16.10
2010,09,19,12,06,16.10
2010,09,19,12,07,16.00
2010,09,19,12,08,15.90
2010,09,19,12,09,15.90
2010,09,19,12,10,15.90
2010,09,19,12,11,15.80
2010,09,19,12,12,15.80
2010,09,19,12,13,15.80
2010,09,19,12,14,15.80
2010,09,19,12,15,15.80
2010,09,19,12,16,15.90
2010,09,19,12,17,15.90
2010,09,19,12,18,15.90
2010,09,19,12,19,16.00
2010,09,19,12,20,16.10
2010,09,19,12,21,16.10
2010,09,19,12,22,16.20
2010,09,19,12,23,16.20
2010,09,19,12,24,16.30
2010,09,19,12,25,16.40
2010,09,19,12,26,16.50
2010,09,19,12,27,16.60
2010,09,19,12,28,16.70
2010,09,19,12,29,16.80
2010,09,19,12,30,16.80
2010,09,19,12,31,16.90
2010,09,19,12,32,17.00
2010,09,19,12,33,17.00
2010,09,19,12,34,17.10
2010,09,19,12,35,17.20
2010,09,19,12,36,17.20
2010,09,19,12,37,17.20
2010,09,19,12,38,17.30
2010,09,19,12,39,17.30
2010,09,19,12,40,17.30
2010,09,19,12,41,17.30
2010,09,19,12,42,17.30
2010,09,19,12,43,17.40
2010,09,19,12,44,17.40
2010,09,19,12,45,17.50
2010,09,19,12,46,17.60
2010,09,19,12,47,17.70
2010,09,19,12,48,17.70
2010,09,19,12,49,17.70
2010,09,19,12,50,17.80
2010,09,19,12,51,17.80
2010,09,19,12,52,17.80
2010,09,19,12,53,17.80
2010,09,19,12,54,17.80
2010,09,19,12,55,17.80
2010,09,19,12,56,17.80
2010,09,19,12,57,17.80
2010,09,19,12,58,17.80
2010,09,19,12,59,17.70
2010,09,19,13,00,17.70
2010,09,19,13,01,17.70
2010,09,19,13,02,17.80
2010,09,19,13,03,17.80
2010,09,19,13,04,17.80
2010,09,19,13,05,17.80
2010,09,19,13,06,17.80
2010,09,19,13,07,17.80
2010,09,19,13,08,17.90
2010,09,19,13,09,17.90
2010,09,19,13,10,17.90
2010,09,19,13,11,18.00
2010,09,19,13,12,18.00
2010,09,19,13,13,18.00
2010,09,19,13,14,18.10
2010,09,19,13,15,18.10
2010,09,19,13,16,18.10
2010,09,19,13,17,18.10
2010,09,19,13,18,18.10
2010,09,19,13,19,18.10
2010,09,19,13,20,18.10
2010,09,19,13,21,18.10
2010,09,19,13,22,18.20
2010,09,19,13,23,18.20
2010,09,19,13,24,18.30
2010,09,19,13,25,18.30
2010,09,19,13,26,18.40
2010,09,19,13,27,18.40
2010,09,19,13,28,18.50
2010,09,19,13,29,18.50
2010,09,19,13,30,18.60
2010,09,19,13,31,18.60
2010,09,19,13,32,18.60
2010,09,19,13,33,18.70
2010,09,19,13,34,18.60
2010,09,19,13,35,18.60
2010,09,19,13,36,18.60
2010,09,19,13,37,18.60
2010,09,19,13,38,18.60
2010,09,19,13,39,18.70
2010,09,19,13,40,18.70
2010,09,19,13,41,18.70
2010,09,19,13,42,18.70
2010,09,19,13,43,18.70
2010,09,19,13,44,18.80
2010,09,19,13,45,18.80
2010,09,19,13,46,18.90
2010,09,19,13,47,18.90
2010,09,19,13,48,18.90
2010,09,19,13,49,18.90
2010,09,19,13,50,18.80
2010,09,19,13,51,18.80
2010,09,19,13,52,18.70
2010,09,19,13,53,18.70
2010,09,19,13,54,18.70
2010,09,19,13,55,18.70
2010,09,19,13,56,18.70
2010,09,19,13,57,18.80
2010,09,19,13,58,18.80
2010,09,19,13,59,18.80
2010,09,19,14,00,18.90
2010,09,19,14,01,18.90
2010,09,19,14,02,18.80
2010,09,19,14,03,18.80
2010,09,19,14,04,18.90
2010,09,19,14,05,18.90
2010,09,19,14,06,18.90
2010,09,19,14,07,18.80
2010,09,19,14,08,18.70
2010,09,19,14,09,18.60
2010,09,19,14,10,18.50
2010,09,19,14,11,18.50
2010,09,19,14,12,18.40
2010,09,19,14,13,18.30
2010,09,19,14,14,18.30
2010,09,19,14,15,18.30
2010,09,19,14,16,18.30
2010,09,19,14,17,18.30
2010,09,19,14,18,18.30
2010,09,19,14,19,18.30
2010,09,19,14,20,18.30
2010,09,19,14,21,18.20
2010,09,19,14,22,18.20
2010,09,19,14,23,18.20
2010,09,19,14,24,18.20
2010,09,19,14,25,18.10
2010,09,19,14,26,17.90
2010,09,19,14,27,17.80
2010,09,19,14,28,17.60
2010,09,19,14,29,17.50
2010,09,19,14,30,17.40
2010,09,19,14,31,17.30
2010,09,19,14,32,17.20
2010,09,19,14,33,17.20
2010,09,19,14,34,17.20
2010,09,19,14,35,17.20
2010,09,19,14,36,17.20
2010,09,19,14,37,17.20
2010,09,19,14,38,17.30
2010,09,19,14,39,17.30
2010,09,19,14,40,17.30
2010,09,19,14,41,17.30
2010,09,19,14,42,17.40
2010,09,19,14,43,17.40
2010,09,19,14,44,17.30
2010,09,19,14,45,17.30
2010,09,19,14,46,17.30
2010,09,19,14,47,17.30
2010,09,19,14,48,17.30
2010,09,19,14,49,17.30
2010,09,19,14,50,17.20
2010,09,19,14,51,17.20
2010,09,19,14,52,17.20
2010,09,19,14,53,17.30
2010,09,19,14,54,17.30
2010,09,19,14,55,17.30
2010,09,19,14,56,17.30
2010,09,19,14,57,17.20
2010,09,19,14,58,17.10
2010,09,19,14,59,17.00
2010,09,19,15,00,17.00
2010,09,19,15,01,16.90
2010,09,19,15,02,16.90
2010,09,19,15,03,16.80
2010,09,19,15,04,16.80
2010,09,19,15,05,16.80
2010,09,19,15,06,16.70
2010,09,19,15,07,16.70
2010,09,19,15,08,16.70
2010,09,19,15,09,16.60
2010,09,19,15,10,16.60
2010,09,19,15,11,16.60
2010,09,19,15,12,16.60
2010,09,19,15,13,16.60
2010,09,19,15,14,16.60
2010,09,19,15,15,16.70
2010,09,19,15,16,16.70
2010,09,19,15,17,16.70
2010,09,19,15,18,16.70
2010,09,19,15,19,16.70
2010,09,19,15,20,16.70
2010,09,19,15,21,16.70
2010,09,19,15,22,16.70
2010,09,19,15,23,16.70
2010,09,19,15,24,16.70
2010,09,19,15,25,16.70
2010,09,19,15,26,16.70
2010,09,19,15,27,16.70
2010,09,19,15,28,16.70
2010,09,19,15,29,16.70
2010,09,19,15,30,16.70
2010,09,19,15,31,16.60
2010,09,19,15,32,16.60
2010,09,19,15,33,16.50
2010,09,19,15,34,16.50
2010,09,19,15,35,16.50
2010,09,19,15,36,16.40
2010,09,19,15,37,16.50
2010,09,19,15,38,16.50
2010,09,19,15,39,16.60
2010,09,19,15,40,16.70
2010,09,19,15,41,16.80
2010,09,19,15,42,16.80
2010,09,19,15,43,16.80
2010,09,19,15,44,16.80
2010,09,19,15,45,16.80
2010,09,19,15,46,16.80
2010,09,19,15,47,16.80
2010,09,19,15,48,16.80
2010,09,19,15,49,16.80
2010,09,19,15,50,16.80
2010,09,19,15,51,16.80
2010,09,19,15,52,16.80
2010,09,19,15,53,16.90
2010,09,19,15,54,16.90
2010,09,19,15,55,16.90
2010,09,19,15,56,17.00
2010,09,19,15,57,17.00
2010,09,19,15,58,17.10
2010,09,19,15,59,17.10
2010,09,19,16,00,17.00
2010,09,19,16,01,17.00
2010,09,19,16,02,17.00
2010,09,19,16,03,17.00
2010,09,19,16,04,17.00
2010,09,19,16,05,17.10
2010,09,19,16,06,17.10
2010,09,19,16,07,17.20
2010,09,19,16,08,17.30
2010,09,19,16,09,17.40
2010,09,19,16,10,17.40
2010,09,19,16,11,17.50
2010,09,19,16,12,17.50
2010,09,19,16,13,17.60
2010,09,19,16,14,17.60
2010,09,19,16,15,17.70
2010,09,19,16,16,17.70
2010,09,19,16,17,17.70
2010,09,19,16,18,17.70
2010,09,19,16,19,17.70
2010,09,19,16,20,17.80
2010,09,19,16,21,17.80
2010,09,19,16,22,17.80
2010,09,19,16,23,17.90
2010,09,19,16,24,17.90
2010,09,19,16,25,17.90
2010,09,19,16,26,17.90
2010,09,19,16,27,18.00
2010,09,19,16,28,18.00
2010,09,19,16,29,18.00
2010,09,19,16,30,18.00
2010,09,19,16,31,18.00
2010,09,19,16,32,18.00
2010,09,19,16,33,18.00
2010,09,19,16,34,18.10
2010,09,19,16,35,18.10
2010,09,19,16,36,18.10
2010,09,19,16,37,18.10
2010,09,19,16,38,18.10
2010,09,19,16,39,18.10
2010,09,19,16,40,18.10
2010,09,19,16,41,18.10
2010,09,19,16,42,18.10
2010,09,19,16,43,18.10
2010,09,19,16,44,18.10
2010,09,19,16,45,18.10
2010,09,19,16,46,18.10
2010,09,19,16,47,18.10
2010,09,19,16,48,18.10
2010,09,19,16,49,18.00
2010,09,19,16,50,18.00
2010,09,19,16,51,18.00
2010,09,19,16,52,17.90
2010,09,19,16,53,17.90
2010,09,19,16,54,17.90
2010,09,19,16,55,17.90
2010,09,19,16,56,17.90
2010,09,19,16,57,17.90
2010,09,19,16,58,17.90
2010,09,19,16,59,17.90
2010,09,19,17,00,18.00
2010,09,19,17,01,18.00
2010,09,19,17,02,18.00
2010,09,19,17,03,18.10
2010,09,19,17,04,18.00
2010,09,19,17,05,18.10
2010,09,19,17,06,18.00
2010,09,19,17,07,18.00
2010,09,19,17,08,18.00
2010,09,19,17,09,18.00
2010,09,19,17,10,17.90
2010,09,19,17,11,17.90
2010,09,19,17,12,17.90
2010,09,19,17,13,17.80
2010,09,19,17,14,17.80
2010,09,19,17,15,17.80
2010,09,19,17,16,17.80
2010,09,19,17,17,17.80
2010,09,19,17,18,17.80
2010,09,19,17,19,17.80
2010,09,19,17,20,17.80
2010,09,19,17,21,17.80
2010,09,19,17,22,17.80
2010,09,19,17,23,17.80
2010,09,19,17,24,17.80
2010,09,19,17,25,17.80
2010,09,19,18,16,16.90
2010,09,19,18,17,16.90
2010,09,19,18,18,16.90
2010,09,19,18,19,16.90
2010,09,19,18,20,17.00
2010,09,19,18,21,17.00
2010,09,19,18,22,17.00
2010,09,19,18,23,17.10
2010,09,19,18,24,17.10
2010,09,19,18,25,17.10
2010,09,19,18,26,17.10
2010,09,19,18,27,17.10
2010,09,19,18,28,17.10
2010,09,19,18,29,17.10
2010,09,19,18,30,17.10
2010,09,19,18,31,17.10
2010,09,19,18,32,17.10
2010,09,19,18,33,17.10
2010,09,19,18,34,17.10
2010,09,19,18,35,17.10
2010,09,19,18,36,17.10
2010,09,19,18,37,17.10
2010,09,19,18,38,17.00
2010,09,19,18,39,17.00
2010,09,19,18,40,17.00
2010,09,19,18,41,16.90
2010,09,19,18,42,16.90
2010,09,19,18,43,16.90
2010,09,19,18,44,16.90
2010,09,19,18,45,16.80
2010,09,19,18,46,16.80
2010,09,19,18,47,16.80
2010,09,19,18,48,16.80
2010,09,19,18,49,16.80
2010,09,19,18,50,16.80
2010,09,19,18,51,16.70
2010,09,19,18,52,16.70
2010,09,19,18,53,16.70
2010,09,19,18,54,16.70
2010,09,19,18,55,16.70
2010,09,19,18,56,16.70
2010,09,19,18,57,16.70
2010,09,19,18,58,16.70
2010,09,19,18,59,16.70
2010,09,19,19,00,16.70
2010,09,19,19,01,16.70
2010,09,19,19,02,16.70
2010,09,19,19,03,16.70
2010,09,19,19,04,16.70
